Weather History for Windom, MN

Change the Weather History Date:

Saturday, March 9, 2013

  Actual Average Record
Temperature  
Mean Temperature 34 °F -  
Max Temperature 37 °F 36 °F 75 °F (1999)
Min Temperature 30 °F 18 °F -17 °F (1984)
Degree Days  
Heating Degree Days 32    
Moisture  
Dew Point 34 °F    
Average Humidity 99    
Maximum Humidity 100    
Minimum Humidity 93    
Precipitation  
Precipitation 0.92 in - - ()
Sea Level Pressure  
Sea Level Pressure 29.75 in    
Wind  
Wind Speed 11 mph (SE)    
Max Wind Speed 23 mph    
Max Gust Speed 28 mph    
Visibility 2 miles    
Events Fog , Rain , Snow    
Averages and records for this station are not official NWS values.
T = Trace of Precipitation, MM = Missing Value Source: NWS Daily Summary

Daily Weather History Graph

Daily Weather History Graph

Search for Another Location

Airport:

Trip Planner

Search our weather history database for the weather conditions in past years. The results will help you decide how hot, cold, wet, or windy it might be!

Date:

Astronomy

Mar. 09, 2013 Rise Set
Actual Time 6:42 AM CST 6:19 PM CST
Civil Twilight 6:14 AM CST 6:48 PM CST
Nautical Twilight 5:40 AM CST 7:21 PM CST
Astronomical Twilight 5:07 AM CST 7:55 PM CST
Moon 5:10 AM CST (3/9) 4:19 PM CST (3/9)
Length of Visible Light 12h 34m
Length of Day
11h 36m
Waning Crescent, 5% of the Moon is Illuminated
Mar 9
Waning Crescent
Mar 11
New
Mar 19
First Quarter
Mar 27
Full
Apr 2
Last Quarter

Hourly Weather History & Observations

Time (CST) Temp. Windchill Dew Point Humidity Pressure Visibility Wind Dir Wind Speed Gust Speed Precip Events Conditions
12:12 AM 33.8 °F 26.4 °F 33.8 °F 100% 29.96 in 1.5 mi SE 9.2 mph - 0.09 in   Overcast
12:52 AM 33.8 °F 25.3 °F 33.8 °F 100% 29.94 in 2.0 mi SSE 11.5 mph - 0.14 in   Overcast
1:12 AM 35.6 °F 26.6 °F 33.8 °F 93% 29.93 in 1.5 mi SSE 13.8 mph - 0.09 in   Overcast
1:33 AM 35.6 °F 26.2 °F 33.8 °F 93% 29.93 in 5.0 mi SE 15.0 mph 23.0 mph 0.12 in Rain Light Rain
1:52 AM 35.6 °F 26.2 °F 33.8 °F 93% 29.92 in 3.0 mi SE 15.0 mph 18.4 mph 0.13 in Rain Light Rain
2:12 AM 33.8 °F 25.3 °F 33.8 °F 100% 29.91 in 3.0 mi SE 11.5 mph 18.4 mph N/A Rain Light Rain
2:33 AM 33.8 °F 24.3 °F 33.8 °F 100% 29.90 in 2.5 mi SE 13.8 mph - 0.01 in   Overcast
2:52 AM 33.8 °F 25.8 °F 33.8 °F 100% 29.89 in 3.0 mi SE 10.4 mph 18.4 mph 0.02 in   Overcast
3:12 AM 33.8 °F 25.3 °F 33.8 °F 100% 29.87 in 3.0 mi SE 11.5 mph - N/A   Overcast
3:33 AM 33.8 °F 25.3 °F 33.8 °F 100% 29.86 in 2.5 mi SE 11.5 mph - N/A   Overcast
3:52 AM 33.8 °F 24.8 °F 33.8 °F 100% 29.85 in 3.0 mi SE 12.7 mph - N/A   Overcast
4:12 AM 33.8 °F 26.4 °F 33.8 °F 100% 29.85 in 2.5 mi SE 9.2 mph - N/A   Overcast
4:33 AM 33.8 °F 25.3 °F 33.8 °F 100% 29.85 in 3.0 mi SE 11.5 mph - N/A Snow Light Snow
4:52 AM 33.8 °F 25.8 °F 33.8 °F 100% 29.84 in 2.5 mi SE 10.4 mph - 0.02 in Rain Rain
5:12 AM 35.6 °F 29.9 °F 33.8 °F 93% 29.83 in 4.0 mi SE 6.9 mph - N/A   Drizzle
5:52 AM 35.6 °F 28.0 °F 33.8 °F 93% 29.81 in 3.0 mi SE 10.4 mph - 0.01 in Rain Light Rain
6:12 AM 35.6 °F 28.0 °F 33.8 °F 93% 29.81 in 3.0 mi SE 10.4 mph - 0.01 in Rain Light Rain
6:33 AM 35.6 °F 28.0 °F 35.6 °F 100% 29.81 in 4.0 mi SSE 10.4 mph - 0.01 in   Overcast
6:52 AM 35.6 °F 28.6 °F 35.6 °F 100% 29.80 in 4.0 mi SE 9.2 mph - 0.01 in   Overcast
7:12 AM 35.6 °F 28.0 °F 35.6 °F 100% 29.79 in 3.0 mi SE 10.4 mph - N/A   Drizzle
7:33 AM 35.6 °F 28.6 °F 35.6 °F 100% 29.78 in 2.5 mi SE 9.2 mph - N/A Rain Light Rain
7:52 AM 35.6 °F 28.0 °F 35.6 °F 100% 29.76 in 1.8 mi SE 10.4 mph - N/A   Light Drizzle
8:12 AM 35.6 °F 28.6 °F 35.6 °F 100% 29.76 in 1.5 mi SE 9.2 mph - N/A Rain Rain
8:33 AM 35.6 °F 27.5 °F 35.6 °F 100% 29.78 in 1.8 mi SE 11.5 mph 16.1 mph N/A Rain Rain
8:52 AM 35.6 °F 28.6 °F 35.6 °F 100% 29.77 in 1.0 mi SE 9.2 mph 16.1 mph 0.05 in Rain Rain
9:12 AM 35.6 °F 29.9 °F 33.8 °F 93% 29.75 in 1.5 mi SE 6.9 mph - 0.03 in Rain Rain
9:33 AM 35.6 °F 29.2 °F 33.8 °F 93% 29.76 in 2.5 mi SE 8.1 mph - 0.09 in Rain Light Rain
9:52 AM 35.6 °F 28.0 °F 35.6 °F 100% 29.74 in 3.0 mi SE 10.4 mph - 0.12 in Rain Rain
10:12 AM 35.6 °F 28.0 °F 35.6 °F 100% 29.72 in 4.0 mi SE 10.4 mph - 0.01 in Rain Light Rain
10:33 AM 35.6 °F 27.5 °F 35.6 °F 100% 29.71 in 5.0 mi SE 11.5 mph - 0.01 in Rain Light Rain
10:52 AM 35.6 °F 28.0 °F 35.6 °F 100% 29.71 in 2.5 mi SE 10.4 mph - 0.03 in Rain Rain
11:12 AM 35.6 °F 29.2 °F 35.6 °F 100% 29.71 in 1.8 mi SE 8.1 mph - 0.02 in Rain Rain
11:33 AM 35.6 °F 28.6 °F 35.6 °F 100% 29.71 in 1.2 mi SSE 9.2 mph - 0.10 in Rain Heavy Rain
11:52 AM 35.6 °F 29.2 °F 35.6 °F 100% 29.70 in 1.5 mi SE 8.1 mph - 0.17 in Rain Rain
12:12 PM 35.6 °F 30.7 °F 35.6 °F 100% 29.70 in 1.8 mi SE 5.8 mph - 0.05 in Rain Rain
12:32 PM 35.6 °F - 35.6 °F 100% 29.68 in 2.0 mi Calm Calm - 0.07 in Rain Rain
12:52 PM 35.6 °F - 35.6 °F 100% 29.67 in 2.0 mi Calm Calm - 0.10 in Rain Rain
1:12 PM 35.6 °F - 35.6 °F 100% 29.66 in 4.0 mi Calm Calm - N/A   Drizzle
1:32 PM 35.6 °F - 35.6 °F 100% 29.67 in 1.2 mi Calm Calm - 0.02 in Snow Snow
1:53 PM 35.6 °F - 35.6 °F 100% 29.66 in 1.2 mi Calm Calm - 0.06 in Rain Rain
2:12 PM 37.4 °F 32.1 °F 35.6 °F 93% 29.64 in 2.5 mi SSE 6.9 mph - N/A   Light Drizzle
2:32 PM 37.4 °F 32.1 °F 35.6 °F 93% 29.63 in 2.0 mi SSE 6.9 mph - N/A   Overcast
2:53 PM 37.4 °F 31.4 °F 37.4 °F 100% 29.63 in 1.8 mi SSE 8.1 mph - N/A   Overcast
3:12 PM 37.4 °F 31.4 °F 37.4 °F 100% 29.63 in 1.2 mi SSE 8.1 mph - N/A   Overcast
3:32 PM 37.4 °F 31.4 °F 37.4 °F 100% 29.64 in 1.0 mi SSE 8.1 mph - N/A   Overcast
3:53 PM 37.4 °F - 37.4 °F 100% 29.64 in 0.8 mi Calm Calm - N/A   Overcast
4:12 PM 37.4 °F - 37.4 °F 100% 29.65 in 0.2 mi Calm Calm - N/A Fog Fog
4:33 PM 37.4 °F 33.8 °F 35.6 °F 93% 29.65 in 0.2 mi NW 4.6 mph - N/A Fog Fog
4:52 PM 35.6 °F 30.7 °F 35.6 °F 100% 29.66 in 0.2 mi WNW 5.8 mph - N/A   Light Drizzle
5:12 PM 35.6 °F 28.6 °F 35.6 °F 100% 29.66 in 1.0 mi NW 9.2 mph - N/A   Drizzle
5:33 PM 35.6 °F 28.6 °F 35.6 °F 100% 29.66 in 1.0 mi NNW 9.2 mph - N/A   Light Drizzle
5:52 PM 35.6 °F 27.5 °F 35.6 °F 100% 29.67 in 1.0 mi NW 11.5 mph - N/A   Light Drizzle
6:12 PM 33.8 °F 24.3 °F 33.8 °F 100% 29.68 in 1.8 mi NW 13.8 mph - N/A   Light Drizzle
6:33 PM 33.8 °F 24.3 °F 33.8 °F 100% 29.69 in 0.2 mi NNW 13.8 mph 19.6 mph N/A   Overcast
6:53 PM 33.8 °F 23.9 °F 33.8 °F 100% 29.70 in 0.2 mi NW 15.0 mph - N/A   Overcast
7:12 PM 33.8 °F 24.8 °F 33.8 °F 100% 29.70 in 1.5 mi NW 12.7 mph - N/A   Overcast
7:33 PM 33.8 °F 25.3 °F 33.8 °F 100% 29.69 in 2.5 mi NNW 11.5 mph - N/A   Overcast
7:53 PM 33.8 °F 23.9 °F 33.8 °F 100% 29.69 in 4.0 mi NW 15.0 mph 20.7 mph N/A   Overcast
8:12 PM 33.8 °F 22.2 °F 33.8 °F 100% 29.68 in 2.5 mi NW 20.7 mph - N/A   Overcast
8:32 PM 32.0 °F 20.5 °F 32.0 °F 100% 29.69 in 3.0 mi NW 18.4 mph 23.0 mph 0.01 in   Overcast
8:53 PM 32.0 °F 19.8 °F 32.0 °F 100% 29.68 in 1.0 mi NNW 20.7 mph 27.6 mph 0.03 in Snow Light Snow
9:12 PM 32.0 °F 20.8 °F 32.0 °F 100% - 4.0 mi NNW 17.3 mph 24.2 mph 0.03 in   Overcast
9:32 PM 32.0 °F 20.1 °F 32.0 °F 100% - 2.0 mi NW 19.6 mph 23.0 mph 0.03 in Snow Light Snow
9:52 PM 32.0 °F 19.5 °F 32.0 °F 100% - 2.0 mi NNW 21.9 mph 27.6 mph 0.03 in Snow Light Snow
10:12 PM 32.0 °F 19.5 °F 32.0 °F 100% - 1.8 mi NNW 21.9 mph 26.5 mph N/A Snow Light Snow
10:33 PM 32.0 °F 19.5 °F 30.2 °F 93% - 2.0 mi NNW 21.9 mph - N/A Snow Light Snow
10:52 PM 32.0 °F 19.5 °F 30.2 °F 93% - 3.0 mi NNW 21.9 mph 25.3 mph N/A Snow Light Snow
11:12 PM 30.2 °F 17.8 °F 30.2 °F 100% - 1.8 mi NNW 19.6 mph 27.6 mph N/A Snow Light Snow
11:33 PM 32.0 °F 20.1 °F 30.2 °F 93% - 2.0 mi NNW 19.6 mph 24.2 mph N/A Snow Light Snow
11:52 PM 30.2 °F 16.8 °F 30.2 °F 100% - 1.5 mi NNW 23.0 mph 27.6 mph N/A Snow Light Snow